sat.trackr.live / text

‹ back to catalog

STARLINK-33677

NORAD 63410 · 2025-065M

PAYLOAD ACTIVE UNKNOWN

§ Identity

Operator
Country
US
Launch date
2025-03-31
Launch site
AFETR
Launch vehicle
Mass (kg)
RCS (m²)

Purposes: comms

External: N2YO · Heavens-Above · Gunter

§ Orbital elements

Epoch: 2026-05-24T18:05:01.250880Z

Period
94.27 min
Inclination
43.0050°
Eccentricity
0.0001303
Mean motion
15.27588997 rev/d
Perigee alt
482.1 km
Apogee alt
483.9 km
Semi-major
6,861.2 km
B*
5.8172e-4
RAAN
37.4390°
Arg perigee
258.7190°
Mean anomaly
101.3516°
Rev number
6,447

§ Raw data

STARLINK-336771 63410U 25065M   26144.75348670  .00015784  00000+0  58172-3 0  99992 63410  43.0050  37.4390 0001303 258.7190 101.3516 15.27588997 64472

JSON: /api/v1/satellites/63410 · /tle

For live sub-satellite position, see the globe view (requires WebGL).

§ Visibility from observer

Set your observer location to see the next 7 days of passes ≥ 10°. The values pass through the URL so the page stays shareable.

No JS? Fill the form by hand. The geolocation button needs JavaScript.